| time (UTC) | temp F | wind direction | speed knots | gust knots | rain 1hr in | rain 24hr in | rain mn in | humidity % | barometer mb |
| 20260505041719 | 56 | 57 | 11.3 | 16.5 | 0.00 | 0.00 | 0.00 | 47 | 1008.2 |
| 20260505041215 | 56 | 52 | 10.4 | 13.0 | 0.00 | 0.00 | 0.00 | 47 | 1008.4 |
| 20260505040712 | 56 | 51 | 10.4 | 15.6 | 0.00 | 0.00 | 0.00 | 47 | 1008.3 |
| 20260505040229 | 57 | 55 | 11.3 | 16.5 | 0.00 | 0.00 | 0.00 | 46 | 1008.5 |
| 20260505035726 | 57 | 64 | 13.9 | 17.4 | 0.00 | 0.00 | 0.00 | 45 | 1008.4 |
| 20260505035223 | 57 | 69 | 12.2 | 17.4 | 0.00 | 0.00 | 0.00 | 45 | 1008.3 |
| 20260505034720 | 57 | 63 | 13.9 | 18.2 | 0.00 | 0.00 | 0.00 | 45 | 1008.3 |
| 20260505034222 | 57 | 53 | 12.2 | 18.2 | 0.00 | 0.00 | 0.00 | 45 | 1008.4 |
| 20260505033718 | 57 | 63 | 12.2 | 19.1 | 0.00 | 0.00 | 0.00 | 44 | 1008.3 |
| 20260505033215 | 57 | 61 | 15.6 | 20.9 | 0.00 | 0.00 | 0.00 | 44 | 1008.1 |
| 20260505032732 | 57 | 62 | 15.6 | 21.7 | 0.00 | 0.00 | 0.00 | 44 | 1008.0 |
| 20260505032227 | 57 | 49 | 16.5 | 20.9 | 0.00 | 0.00 | 0.00 | 44 | 1007.9 |
| 20260505031723 | 57 | 61 | 15.6 | 20.9 | 0.00 | 0.00 | 0.00 | 44 | 1007.7 |
| 20260505031219 | 58 | 53 | 15.6 | 20.9 | 0.00 | 0.00 | 0.00 | 44 | 1007.7 |
| 20260505030714 | 58 | 50 | 16.5 | 20.0 | 0.00 | 0.00 | 0.00 | 43 | 1007.4 |
| 20260505030231 | 58 | 59 | 14.8 | 23.5 | 0.00 | 0.00 | 0.00 | 43 | 1007.3 |
| 20260505025746 | 58 | 62 | 18.2 | 23.5 | 0.00 | 0.00 | 0.00 | 43 | 1007.3 |
| 20260505025226 | 58 | 59 | 18.2 | 21.7 | 0.00 | 0.00 | 0.00 | 43 | 1007.2 |
| 20260505024722 | 58 | 65 | 15.6 | 23.5 | 0.00 | 0.00 | 0.00 | 43 | 1007.2 |
| 20260505024219 | 58 | 57 | 18.2 | 24.3 | 0.00 | 0.00 | 0.00 | 42 | 1007.1 |
| 20260505023716 | 58 | 50 | 18.2 | 24.3 | 0.00 | 0.00 | 0.00 | 42 | 1007.2 |
| 20260505023213 | 59 | 61 | 16.5 | 24.3 | 0.00 | 0.00 | 0.00 | 42 | 1007.1 |
| 20260505022727 | 59 | 52 | 15.6 | 21.7 | 0.00 | 0.00 | 0.00 | 42 | 1007.0 |
| 20260505022224 | 59 | 34 | 17.4 | 23.5 | 0.00 | 0.00 | 0.00 | 42 | 1006.8 |
| 20260505021725 | 59 | 55 | 20.0 | 23.5 | 0.00 | 0.00 | 0.00 | 41 | 1006.6 |
| 20260505021222 | 59 | 42 | 14.8 | 23.5 | 0.00 | 0.00 | 0.00 | 42 | 1006.3 |
| 20260505020719 | 59 | 56 | 15.6 | 26.1 | 0.00 | 0.00 | 0.00 | 41 | 1006.2 |
| 20260505020235 | 60 | 45 | 17.4 | 26.1 | 0.00 | 0.00 | 0.00 | 40 | 1006.1 |
| 20260505015710 | 61 | 41 | 16.5 | 26.9 | 0.00 | 0.00 | 0.00 | 40 | 1006.2 |
| 20260505015226 | 61 | 50 | 20.9 | 27.8 | 0.00 | 0.00 | 0.00 | 39 | 1006.1 |
| 20260505014723 | 62 | 50 | 20.9 | 27.8 | 0.00 | 0.00 | 0.00 | 38 | 1006.0 |
| 20260505014220 | 62 | 61 | 21.7 | 26.1 | 0.00 | 0.00 | 0.00 | 38 | 1005.6 |
| 20260505013721 | 62 | 49 | 19.1 | 25.2 | 0.00 | 0.00 | 0.00 | 38 | 1005.6 |
| 20260505013218 | 62 | 59 | 20.0 | 26.9 | 0.00 | 0.00 | 0.00 | 38 | 1005.4 |
| 20260505012714 | 62 | 51 | 19.1 | 26.9 | 0.00 | 0.00 | 0.00 | 38 | 1005.2 |
| 20260505012211 | 63 | 49 | 17.4 | 23.5 | 0.00 | 0.00 | 0.00 | 38 | 1005.0 |
| 20260505011729 | 63 | 45 | 16.5 | 26.1 | 0.00 | 0.00 | 0.00 | 38 | 1004.9 |
| 20260505011245 | 63 | 360 | 19.1 | 26.1 | 0.00 | 0.00 | 0.00 | 37 | 1004.8 |
| 20260505010721 | 64 | 360 | 18.2 | 27.8 | 0.00 | 0.00 | 0.00 | 37 | 1004.7 |
| 20260505010237 | 64 | 360 | 20.9 | 27.8 | 0.00 | 0.00 | 0.00 | 36 | 1004.5 |
| 20260505005733 | 65 | 35 | 20.9 | 29.5 | 0.00 | 0.00 | 0.00 | 36 | 1004.6 |
| 20260505005250 | 65 | 39 | 20.9 | 27.8 | 0.00 | 0.00 | 0.00 | 35 | 1004.6 |
| 20260505004729 | 66 | 43 | 19.1 | 26.1 | 0.00 | 0.00 | 0.00 | 34 | 1004.5 |
| 20260505004246 | 67 | 44 | 20.0 | 26.1 | 0.00 | 0.00 | 0.00 | 34 | 1004.5 |
| 20260505003722 | 67 | 32 | 19.1 | 24.3 | 0.00 | 0.00 | 0.00 | 34 | 1004.4 |
| 20260505003219 | 67 | 34 | 19.1 | 25.2 | 0.00 | 0.00 | 0.00 | 34 | 1004.4 |
| 20260505002716 | 67 | 32 | 21.7 | 25.2 | 0.00 | 0.00 | 0.00 | 33 | 1004.3 |
| 20260505002212 | 68 | 36 | 20.9 | 25.2 | 0.00 | 0.00 | 0.00 | 33 | 1004.2 |
| 20260505001749 | 69 | 50 | 19.1 | 23.5 | 0.00 | 0.00 | 0.00 | 31 | 1004.1 |
| 20260505001224 | 70 | 46 | 13.0 | 17.4 | 0.00 | 0.00 | 0.00 | 27 | 1004.2 |
| 20260505000741 | 71 | 40 | 9.6 | 13.9 | 0.00 | 0.00 | 0.00 | 26 | 1004.2 |
| 20260505000215 | 71 | 40 | 9.6 | 13.9 | 0.00 | 0.00 | 0.00 | 26 | 1004.2 |
| 20260504235717 | 71 | 23 | 5.2 | 10.4 | 0.00 | 0.00 | 0.00 | 26 | 1004.1 |
| 20260504235213 | 71 | 21 | 7.0 | 10.4 | 0.00 | 0.00 | 0.00 | 26 | 1004.2 |
| 20260504234710 | 71 | 14 | 7.8 | 11.3 | 0.00 | 0.00 | 0.00 | 26 | 1004.2 |
| 20260504234226 | 71 | 32 | 8.7 | 11.3 | 0.00 | 0.00 | 0.00 | 26 | 1004.1 |
| 20260504233723 | 71 | 9 | 4.3 | 13.9 | 0.00 | 0.00 | 0.00 | 26 | 1004.1 |
| 20260504233220 | 71 | 25 | 11.3 | 13.9 | 0.00 | 0.00 | 0.00 | 26 | 1004.0 |
| 20260504232738 | 71 | 38 | 7.8 | 12.2 | 0.00 | 0.00 | 0.00 | 26 | 1003.9 |
| 20260504232217 | 71 | 27 | 7.8 | 11.3 | 0.00 | 0.00 | 0.00 | 26 | 1004.0 |
| 20260504231714 | 71 | 24 | 7.8 | 12.2 | 0.00 | 0.00 | 0.00 | 26 | 1004.1 |
| 20260504231210 | 71 | 14 | 7.0 | 11.3 | 0.00 | 0.00 | 0.00 | 26 | 1004.0 |
| 20260504230727 | 72 | 26 | 7.8 | 13.0 | 0.00 | 0.00 | 0.00 | 25 | 1003.9 |
| 20260504230224 | 72 | 26 | 7.0 | 12.2 | 0.00 | 0.00 | 0.00 | 24 | 1003.9 |
| 20260504225741 | 72 | 21 | 8.7 | 12.2 | 0.00 | 0.00 | 0.00 | 25 | 1004.0 |
| 20260504225216 | 72 | 355 | 8.7 | 12.2 | 0.00 | 0.00 | 0.00 | 26 | 1004.1 |
| 20260504224713 | 72 | 5 | 7.8 | 12.2 | 0.00 | 0.00 | 0.00 | 27 | 1004.1 |
| 20260504224214 | 71 | 325 | 7.8 | 12.2 | 0.00 | 0.00 | 0.00 | 27 | 1004.2 |
| 20260504223751 | 71 | 346 | 7.8 | 11.3 | 0.00 | 0.00 | 0.00 | 28 | 1004.3 |
| 20260504223226 | 70 | 340 | 7.8 | 13.9 | 0.00 | 0.00 | 0.00 | 28 | 1004.2 |
| 20260504222723 | 70 | 337 | 8.7 | 14.8 | 0.00 | 0.00 | 0.00 | 28 | 1004.3 |
| 20260504222220 | 70 | 324 | 10.4 | 13.9 | 0.00 | 0.00 | 0.00 | 27 | 1004.4 |
| 20260504221717 | 70 | 344 | 9.6 | 15.6 | 0.00 | 0.00 | 0.00 | 28 | 1004.5 |
| 20260504221213 | 70 | 316 | 11.3 | 15.6 | 0.00 | 0.00 | 0.00 | 28 | 1004.6 |
| 20260504220710 | 70 | 317 | 7.8 | 12.2 | 0.00 | 0.00 | 0.00 | 28 | 1004.7 |
| 20260504220210 | 70 | 306 | 9.6 | 16.5 | 0.00 | 0.00 | 0.00 | 27 | 1004.8 |
| 20260504215727 | 70 | 293 | 12.2 | 25.2 | 0.00 | 0.00 | 0.00 | 28 | 1004.8 |
| 20260504215224 | 70 | 291 | 14.8 | 25.2 | 0.00 | 0.00 | 0.00 | 27 | 1004.9 |
| 20260504214721 | 71 | 300 | 15.6 | 21.7 | 0.00 | 0.00 | 0.00 | 27 | 1004.9 |
| 20260504214216 | 72 | 311 | 15.6 | 21.7 | 0.00 | 0.00 | 0.00 | 25 | 1004.9 |
| 20260504213712 | 72 | 258 | 9.6 | 17.4 | 0.00 | 0.00 | 0.00 | 22 | 1004.9 |
| 20260504213229 | 72 | 302 | 10.4 | 22.6 | 0.00 | 0.00 | 0.00 | 22 | 1004.6 |
| 20260504212710 | 72 | 26 | 7.0 | 23.5 | 0.00 | 0.00 | 0.00 | 21 | 1004.4 |
| 20260504212227 | 72 | 265 | 8.7 | 23.5 | 0.00 | 0.00 | 0.00 | 21 | 1004.3 |
| 20260504211744 | 72 | 251 | 13.9 | 19.1 | 0.00 | 0.00 | 0.00 | 21 | 1004.5 |
| 20260504211218 | 72 | 229 | 10.4 | 17.4 | 0.00 | 0.00 | 0.00 | 20 | 1004.4 |
| 20260504210735 | 73 | 243 | 12.2 | 24.3 | 0.00 | 0.00 | 0.00 | 21 | 1004.4 |
| 20260504210250 | 73 | 253 | 16.5 | 24.3 | 0.00 | 0.00 | 0.00 | 21 | 1004.4 |
| 20260504205726 | 74 | 236 | 9.6 | 16.5 | 0.00 | 0.00 | 0.00 | 20 | 1004.4 |
| 20260504205241 | 75 | 231 | 8.7 | 12.2 | 0.00 | 0.00 | 0.00 | 20 | 1004.3 |
| 20260504204717 | 75 | 244 | 6.1 | 11.3 | 0.00 | 0.00 | 0.00 | 18 | 1004.2 |
| 20260504204214 | 76 | 189 | 1.7 | 3.5 | 0.00 | 0.00 | 0.00 | 18 | 1004.1 |
| 20260504203715 | 75 | 269 | 1.7 | 7.0 | 0.00 | 0.00 | 0.00 | 17 | 1004.2 |
| 20260504203232 | 75 | 348 | 2.6 | 7.0 | 0.00 | 0.00 | 0.00 | 16 | 1004.2 |
| 20260504202728 | 75 | 258 | 3.5 | 5.2 | 0.00 | 0.00 | 0.00 | 17 | 1004.3 |
| 20260504202244 | 75 | 307 | 0.9 | 10.4 | 0.00 | 0.00 | 0.00 | 16 | 1004.3 |
| 20260504201720 | 75 | 15 | 5.2 | 10.4 | 0.00 | 0.00 | 0.00 | 16 | 1004.3 |
| 20260504201217 | 76 | 333 | 8.7 | 10.4 | 0.00 | 0.00 | 0.00 | 17 | 1004.3 |
| 20260504200734 | 76 | 275 | 7.8 | 10.4 | 0.00 | 0.00 | 0.00 | 17 | 1004.3 |
| 20260504200250 | 76 | 5 | 7.0 | 12.2 | 0.00 | 0.00 | 0.00 | 17 | 1004.2 |
| 20260504195746 | 76 | 360 | 7.0 | 12.2 | 0.00 | 0.00 | 0.00 | 16 | 1004.3 |
| 20260504195222 | 77 | 21 | 6.1 | 17.4 | 0.00 | 0.00 | 0.00 | 15 | 1004.2 |
| 20260504194740 | 77 | 324 | 7.0 | 17.4 | 0.00 | 0.00 | 0.00 | 15 | 1004.4 |
| 20260504194218 | 78 | 310 | 8.7 | 13.0 | 0.00 | 0.00 | 0.00 | 15 | 1004.4 |
| 20260504193715 | 77 | 355 | 3.5 | 16.5 | 0.00 | 0.00 | 0.00 | 15 | 1004.4 |
| 20260504193211 | 77 | 310 | 9.6 | 19.1 | 0.00 | 0.00 | 0.00 | 15 | 1004.6 |
| 20260504192728 | 77 | 313 | 12.2 | 19.1 | 0.00 | 0.00 | 0.00 | 17 | 1004.5 |
| 20260504192226 | 77 | 326 | 9.6 | 15.6 | 0.00 | 0.00 | 0.00 | 17 | 1004.6 |
| 20260504191722 | 77 | 347 | 8.7 | 15.6 | 0.00 | 0.00 | 0.00 | 16 | 1004.6 |
| 20260504191219 | 77 | 26 | 8.7 | 15.6 | 0.00 | 0.00 | 0.00 | 17 | 1004.7 |
| 20260504190720 | 77 | 346 | 8.7 | 13.9 | 0.00 | 0.00 | 0.00 | 17 | 1004.8 |
| 20260504190217 | 77 | 24 | 9.6 | 13.9 | 0.00 | 0.00 | 0.00 | 18 | 1004.7 |
| 20260504185714 | 76 | 17 | 7.8 | 13.0 | 0.00 | 0.00 | 0.00 | 18 | 1004.9 |
| 20260504185210 | 76 | 338 | 7.8 | 15.6 | 0.00 | 0.00 | 0.00 | 17 | 1004.9 |
| 20260504184727 | 76 | 314 | 10.4 | 15.6 | 0.00 | 0.00 | 0.00 | 19 | 1005.0 |
| 20260504184224 | 76 | 343 | 8.7 | 14.8 | 0.00 | 0.00 | 0.00 | 18 | 1005.2 |
| 20260504183741 | 76 | 344 | 10.4 | 16.5 | 0.00 | 0.00 | 0.00 | 18 | 1005.2 |
| 20260504183221 | 76 | 331 | 13.0 | 16.5 | 0.00 | 0.00 | 0.00 | 19 | 1005.4 |
| 20260504182718 | 75 | 331 | 9.6 | 14.8 | 0.00 | 0.00 | 0.00 | 20 | 1005.4 |
| 20260504182215 | 75 | 337 | 11.3 | 15.6 | 0.00 | 0.00 | 0.00 | 21 | 1005.5 |
| 20260504181712 | 74 | 355 | 9.6 | 16.5 | 0.00 | 0.00 | 0.00 | 20 | 1005.6 |
| 20260504181229 | 74 | 360 | 9.6 | 16.5 | 0.00 | 0.00 | 0.00 | 21 | 1005.7 |
| 20260504180726 | 73 | 316 | 7.0 | 17.4 | 0.00 | 0.00 | 0.00 | 22 | 1005.7 |
| 20260504180223 | 73 | 337 | 11.3 | 17.4 | 0.00 | 0.00 | 0.00 | 21 | 1005.9 |
| 20260504175718 | 73 | 13 | 11.3 | 16.5 | 0.00 | 0.00 | 0.00 | 22 | 1005.9 |
| 20260504175240 | 73 | 355 | 8.7 | 17.4 | 0.00 | 0.00 | 0.00 | 22 | 1006.0 |
| 20260504174715 | 73 | 13 | 13.0 | 17.4 | 0.00 | 0.00 | 0.00 | 23 | 1006.1 |
| 20260504174212 | 73 | 5 | 7.8 | 16.5 | 0.00 | 0.00 | 0.00 | 24 | 1006.2 |
| 20260504173729 | 73 | 25 | 10.4 | 16.5 | 0.00 | 0.00 | 0.00 | 25 | 1006.2 |
| 20260504173225 | 72 | 313 | 10.4 | 16.5 | 0.00 | 0.00 | 0.00 | 25 | 1006.4 |
| 20260504172722 | 72 | 329 | 11.3 | 16.5 | 0.00 | 0.00 | 0.00 | 24 | 1006.4 |
| 20260504172219 | 72 | 12 | 9.6 | 16.5 | 0.00 | 0.00 | 0.00 | 24 | 1006.5 |
| 20260504171737 | 72 | 10 | 8.7 | 14.8 | 0.00 | 0.00 | 0.00 | 27 | 1006.5 |
| 20260504171217 | 72 | 341 | 10.4 | 13.9 | 0.00 | 0.00 | 0.00 | 26 | 1006.6 |
| 20260504170713 | 71 | 355 | 9.6 | 14.8 | 0.00 | 0.00 | 0.00 | 27 | 1006.6 |
| 20260504170229 | 71 | 5 | 10.4 | 13.9 | 0.00 | 0.00 | 0.00 | 27 | 1006.6 |
| 20260504160231 | 70 | 321 | 8.7 | 11.3 | 0.00 | 0.00 | 0.00 | 28 | 1006.4 |
| 20260504150718 | 68 | 307 | 8.7 | 12.2 | 0.00 | 0.00 | 0.00 | 31 | 1006.3 |
| 20260504150218 | 68 | 294 | 9.6 | 13.9 | 0.00 | 0.00 | 0.00 | 31 | 1006.2 |
| 20260504141228 | 61 | 274 | 10.4 | 13.9 | 0.00 | 0.00 | 0.00 | 40 | 1006.4 |
| 20260504140725 | 59 | 271 | 8.7 | 11.3 | 0.00 | 0.00 | 0.00 | 43 | 1006.4 |
| 20260504140221 | 58 | 288 | 8.7 | 10.4 | 0.00 | 0.00 | 0.00 | 44 | 1006.4 |
| 20260504130711 | 48 | 258 | 6.1 | 8.7 | 0.00 | 0.00 | 0.00 | 59 | 1006.4 |
| 20260504130228 | 48 | 262 | 7.0 | 9.6 | 0.00 | 0.00 | 0.00 | 59 | 1006.4 |
| 20260504120210 | 41 | 260 | 6.1 | 8.7 | 0.00 | 0.00 | 0.00 | 65 | 1006.4 |
| 20260504110719 | 41 | 262 | 7.0 | 7.8 | 0.00 | 0.00 | 0.00 | 65 | 1006.2 |
| 20260504110216 | 42 | 260 | 7.0 | 7.8 | 0.00 | 0.00 | 0.00 | 64 | 1006.2 |
| 20260504100218 | 43 | 261 | 7.0 | 7.0 | 0.00 | 0.00 | 0.00 | 64 | 1006.4 |
| 20260504081718 | 48 | 260 | 5.2 | 7.0 | 0.00 | 0.00 | 0.00 | 53 | 1007.0 |
| 20260504081215 | 48 | 266 | 5.2 | 7.0 | 0.00 | 0.00 | 0.00 | 52 | 1007.0 |
| 20260504080712 | 49 | 277 | 3.5 | 7.8 | 0.00 | 0.00 | 0.00 | 52 | 1007.0 |
| 20260504080228 | 49 | 260 | 6.1 | 7.8 | 0.00 | 0.00 | 0.00 | 52 | 1007.0 |
| 20260504070229 | 53 | 246 | 6.1 | 7.8 | 0.00 | 0.00 | 0.00 | 46 | 1007.6 |
| 20260504060219 | 57 | 148 | 3.5 | 6.1 | 0.00 | 0.00 | 0.00 | 42 | 1007.9 |
| 20260504050727 | 58 | 142 | 5.2 | 9.6 | 0.00 | 0.00 | 0.00 | 38 | 1008.5 |
| 20260504050244 | 58 | 139 | 4.3 | 8.7 | 0.00 | 0.00 | 0.00 | 38 | 1008.5 |
| 20260504045720 | 57 | 234 | 5.2 | 10.4 | 0.00 | 0.00 | 0.00 | 39 | 1008.6 |
| 20260504045217 | 57 | 232 | 3.5 | 10.4 | 0.00 | 0.00 | 0.00 | 41 | 1008.5 |
| 20260504044718 | 57 | 273 | 0.9 | 4.3 | 0.00 | 0.00 | 0.00 | 42 | 1008.7 |
| 20260504044215 | 57 | 213 | 1.7 | 4.3 | 0.00 | 0.00 | 0.00 | 41 | 1008.7 |
| 20260504043732 | 57 | 150 | 2.6 | 6.1 | 0.00 | 0.00 | 0.00 | 40 | 1008.7 |
| 20260504043248 | 57 | 144 | 3.5 | 6.1 | 0.00 | 0.00 | 0.00 | 40 | 1008.7 |
| 20260504042724 | 57 | 123 | 3.5 | 7.0 | 0.00 | 0.00 | 0.00 | 41 | 1008.8 |
| 20260504042220 | 57 | 86 | 3.5 | 7.0 | 0.00 | 0.00 | 0.00 | 40 | 1008.9 |